Mercury, NV

6:25 AM PDT on October 17, 2017 (GMT -0700)
Mercury

Weather History for KDRA - March, 2013

Change the Weather History Date:

Saturday, March 23, 2013

  Actual Average Record
Temperature  
Mean Temperature 48 °F 54 °F  
Max Temperature 59 °F 68 °F 83 °F (1990)
Min Temperature 37 °F 41 °F 26 °F (1995)
Degree Days  
Heating Degree Days 17    
Cooling Degree Days 0    
Moisture  
Dew Point 2 °F    
Average Humidity 14    
Maximum Humidity 24    
Minimum Humidity 4    
Precipitation  
Precipitation 0.00 in 0.02 in 0.65 in (1995)
Month to date precipitation 0.53  
Year to date precipitation 2.16  
Sea Level Pressure  
Sea Level Pressure 30.01 in    
Wind  
Wind Speed 14 mph (ENE)    
Max Wind Speed 22 mph    
Max Gust Speed 26 mph    
Visibility 10 miles    
Events      
T = Trace of Precipitation, MM = Missing Value Source: NWS Daily Summary

Daily Weather History Graph

Daily Weather History Graph

Search for Another Location

Airport or City:

Trip Planner

Search our weather history database for the weather conditions in past years. The results will help you decide how hot, cold, wet, or windy it might be!

Date:

Astronomy

Mar. 23, 2013 Rise Set
Actual Time 6:42 AM PDT 6:58 PM PDT
Civil Twilight 6:16 AM PDT 7:24 PM PDT
Nautical Twilight 5:46 AM PDT 7:54 PM PDT
Astronomical Twilight 5:16 AM PDT 8:25 PM PDT
Moon 3:34 PM PDT (3/23) 4:16 AM PDT (3/23)
Length of Visible Light 13h 07m
Length of Day
12h 16m
Waxing Gibbous, 86% of the Moon is Illuminated
Mar 23
Waxing Gibbous
Mar 27
Full
Apr 2
Last Quarter
Apr 10
New
Apr 18
First Quarter

Hourly Weather History & Observations

Time (PDT) Temp. Windchill Dew Point Humidity Pressure Visibility Wind Dir Wind Speed Gust Speed Precip Events Conditions
12:52 AM 51.1 °F - -14.1 °F 6% 29.89 in 10.0 mi ENE 10.4 mph 23.0 mph N/A   Clear
1:52 AM 48.9 °F - -7.1 °F 10% 29.92 in 10.0 mi NE 11.5 mph - N/A   Clear
2:52 AM 45.0 °F 38.2 °F -0.9 °F 15% 29.94 in 10.0 mi NNE 15.0 mph - N/A   Clear
3:52 AM 43.0 °F 36.0 °F 1.0 °F 17% 29.96 in 10.0 mi NNE 13.8 mph - N/A   Clear
4:52 AM 43.0 °F 35.1 °F 1.0 °F 17% 29.97 in 10.0 mi NE 17.3 mph - N/A   Clear
5:52 AM 39.9 °F 31.1 °F 1.9 °F 20% 30.00 in 10.0 mi NNE 17.3 mph - N/A   Clear
6:52 AM 37.9 °F 30.0 °F 3.0 °F 23% 30.04 in 10.0 mi ENE 12.7 mph - N/A   Clear
7:52 AM 39.0 °F 28.8 °F 5.0 °F 24% 30.09 in 10.0 mi NNE 21.9 mph - N/A   Clear
8:52 AM 42.1 °F 33.3 °F 6.1 °F 23% 30.11 in 10.0 mi NE 19.6 mph 26.5 mph N/A   Clear
9:52 AM 46.9 °F - 5.0 °F 18% 30.12 in 10.0 mi NNE 18.4 mph - N/A   Clear
10:52 AM 50.0 °F - 6.1 °F 17% 30.11 in 10.0 mi NNE 11.5 mph 20.7 mph N/A   Clear
11:40 AM 51.8 °F - 5.0 °F 15% 30.13 in 10.0 mi ESE 16.1 mph 23.0 mph N/A   Clear
11:52 AM 51.1 °F - 5.0 °F 15% 30.07 in 10.0 mi ESE 13.8 mph 23.0 mph N/A   Clear
12:52 PM 53.1 °F - 5.0 °F 14% 30.06 in 10.0 mi East 15.0 mph - N/A   Clear
1:52 PM 55.9 °F - 3.9 °F 12% 30.02 in 10.0 mi ESE 19.6 mph 24.2 mph N/A   Clear
2:52 PM 57.0 °F - 3.0 °F 11% 30.00 in 10.0 mi ESE 15.0 mph 24.2 mph N/A   Clear
3:52 PM 57.9 °F - 1.9 °F 10% 29.97 in 10.0 mi East 15.0 mph 21.9 mph N/A   Clear
4:52 PM 57.9 °F - 1.0 °F 10% 29.96 in 10.0 mi ESE 15.0 mph - N/A   Clear
5:52 PM 57.9 °F - -0.0 °F 10% 29.96 in 10.0 mi SE 10.4 mph - N/A   Clear
6:52 PM 55.0 °F - 1.0 °F 11% 29.96 in 10.0 mi ESE 10.4 mph - N/A   Clear
7:52 PM 52.0 °F - 1.0 °F 12% 29.98 in 10.0 mi ESE 6.9 mph - N/A   Clear
8:52 PM 48.9 °F - 1.0 °F 14% 29.99 in 10.0 mi ESE 5.8 mph - N/A   Clear
9:52 PM 46.9 °F - 1.9 °F 16% 30.01 in 10.0 mi North - - N/A   Clear
10:52 PM 44.1 °F - 3.9 °F 19% 30.01 in 10.0 mi North - - N/A   Clear
11:52 PM 43.0 °F - 3.0 °F 19% 30.02 in 10.0 mi North - - N/A   Clear